Location: Piotrkow Trybunalski
(51.4000°N, 19.6830°E)
Time: 06:49:18
(UTC+02:00)

STRAND 1 - Pass Details

Date: 27 February 2024
Orbit: 764 x 779 km, 98.4° (Epoch: 24 April)

Event Time Altitude Azimuth Distance (km) Brightness Sun altitude
Rises 19:51:00 0° 6° (N) 3,272 ? -24.5°
Reaches altitude 10° 19:53:44 10° 353° (N) 2,338 ? -24.9°
Maximum altitude 19:57:42 23° 303° (WNW) 1,604 ? -25.5°
Drops below altitude 10° 20:01:39 10° 252° (WSW) 2,319 ? -26.1°
Sets 20:04:21 0° 238° (WSW) 3,239 ? -26.5°
